INTELSAT 905 (IS-905)

Last updated on Sun Oct 19 2025 00:02:46 GMT+0000 (Coordinated Universal Time)

1 27438U 02027A 25291.17961465 .00000092 00000+0 00000+0 0 9992 2 27438 6.1428 72.7012 0002489 136.4872 105.2034 1.00272948 48932
UTC large
Height (km)
Speed (km/s)
/
Latitude / Longitude
Inclination (degrees)
Orbital Period (minutes)
Azimuth
Elevation
Range (km)
Doppler Factor

Next 0 passes for location: London (51.5072 / 0.1276)

Sorry there are no passes over London.